EW7146 Weather Reports


time (UTC)temp
F
wind
direction
speed
knots
gust
knots
rain 1hr
in
rain 24hr
in
rain mn
in
humidity
%
barometer
mb
20260906095225 44 183 0.0 1.7 0.00 0.00 0.00 83 1030.7
20260906094730 45 209 0.0 1.7 0.00 0.00 0.00 84 1030.7
20260906094226 45 214 0.9 1.7 0.00 0.00 0.00 83 1030.8
20260906093945 45 213 0.9 1.7 0.00 0.00 0.00 84 1030.7
20260906093225 45 200 0.0 1.7 0.00 0.00 0.00 84 1030.7
20260906092946 45 203 0.0 0.9 0.00 0.00 0.00 84 1030.8
20260906092223 45 164 0.0 0.9 0.00 0.00 0.00 84 1030.7
20260906091723 45 162 0.0 0.9 0.00 0.00 0.00 84 1030.8
20260906091222 45 161 0.9 1.7 0.00 0.00 0.00 83 1030.9
20260906090724 45 204 0.9 1.7 0.00 0.00 0.00 85 1030.8
20260906090229 45 241 0.0 0.9 0.00 0.00 0.00 84 1030.8
20260906085725 45 214 0.0 0.9 0.00 0.00 0.00 84 1030.7
20260906085224 45 220 0.0 0.0 0.00 0.00 0.00 84 1030.8
20260906084724 45 220 0.0 0.0 0.00 0.00 0.00 84 1030.9
20260906084223 45 220 0.0 0.0 0.00 0.00 0.00 84 1031.0
20260906083728 45 200 0.0 0.0 0.00 0.00 0.00 84 1030.9
20260906083223 46 235 0.0 0.0 0.00 0.00 0.00 84 1030.9
20260906082722 46 235 0.0 0.0 0.00 0.00 0.00 83 1031.0
20260906082223 46 235 0.0 0.0 0.00 0.00 0.00 83 1031.0
20260906081722 46 235 0.0 0.0 0.00 0.00 0.00 83 1030.9
20260906081226 47 235 0.0 0.0 0.00 0.00 0.00 83 1031.0
20260906080723 47 235 0.0 0.0 0.00 0.00 0.00 84 1031.1
20260906080223 46 227 0.0 1.7 0.00 0.00 0.00 84 1031.1
20260906075947 46 204 0.0 1.7 0.00 0.00 0.00 84 1031.1
20260906075222 46 206 0.0 0.0 0.00 0.00 0.00 85 1031.0
20260906074722 46 206 0.0 0.0 0.00 0.00 0.00 84 1031.1
20260906074221 46 206 0.0 0.0 0.00 0.00 0.00 84 1031.1
20260906073722 47 206 0.0 0.0 0.00 0.00 0.00 82 1031.1
20260906073227 47 206 0.0 0.0 0.00 0.00 0.00 81 1031.1
20260906072722 47 206 0.0 0.0 0.00 0.00 0.00 81 1031.2
20260906072223 48 241 0.0 0.0 0.00 0.00 0.00 84 1031.2
20260906072209 47 241 0.0 0.9 0.00 0.00 0.00 83 1031.3
20260906071221 47 220 0.0 0.9 0.00 0.00 0.00 85 1031.2
20260906070720 47 219 0.0 0.9 0.00 0.00 0.00 85 1031.1
20260906070443 47 212 0.0 0.9 0.00 0.00 0.00 84 1031.2
20260906065945 47 212 0.0 0.0 0.00 0.00 0.00 84 1031.2
20260906065221 47 212 0.0 0.0 0.00 0.00 0.00 83 1031.2
20260906064720 47 212 0.0 0.0 0.00 0.00 0.00 84 1031.2
20260906064221 47 212 0.0 0.0 0.00 0.00 0.00 83 1031.2
20260906063723 47 212 0.0 0.0 0.00 0.00 0.00 83 1031.3
20260906063220 48 212 0.0 0.0 0.00 0.00 0.00 82 1031.3
20260906062720 48 212 0.0 0.0 0.00 0.00 0.00 82 1031.3
20260906062219 48 212 0.0 0.0 0.00 0.00 0.00 81 1031.3
20260906061719 49 212 0.0 0.0 0.00 0.00 0.00 80 1031.2
20260906061219 49 212 0.0 0.0 0.00 0.00 0.00 80 1031.1
20260906060722 49 212 0.0 0.0 0.00 0.00 0.00 79 1031.0
20260906060224 49 212 0.0 0.0 0.00 0.00 0.00 78 1031.1
20260906055943 49 212 0.0 0.9 0.00 0.00 0.00 77 1031.1
20260906055219 49 212 0.0 1.7 0.00 0.00 0.00 77 1031.1
20260906054724 50 223 0.9 1.7 0.00 0.00 0.00 79 1031.1
20260906054440 50 197 0.0 1.7 0.00 0.00 0.00 78 1031.0
20260906053718 50 185 0.0 0.0 0.00 0.00 0.00 77 1030.9
20260906053220 51 185 0.0 0.0 0.00 0.00 0.00 76 1031.0
20260906052949 51 185 0.0 0.0 0.00 0.00 0.00 76 1031.1
20260906052219 51 185 0.0 0.0 0.00 0.00 0.00 76 1031.0
20260906051934 52 185 0.0 0.0 0.00 0.00 0.00 74 1031.2
20260906051819 51 185 0.0 0.0 0.00 0.00 0.00 74 1031.2
20260906050943 53 185 0.0 0.0 0.00 0.00 0.00 75 1031.3
20260906050218 53 185 0.0 0.0 0.00 0.00 0.00 74 1031.3
20260906045718 53 185 0.0 0.9 0.00 0.00 0.00 74 1031.3
20260906045225 53 185 0.0 0.9 0.00 0.00 0.00 73 1031.3
20260906044719 53 185 0.0 0.9 0.00 0.00 0.00 73 1031.2
20260906044217 54 41 0.0 0.0 0.00 0.00 0.00 72 1031.3
20260906043719 55 41 0.0 0.0 0.00 0.00 0.00 74 1031.2
20260906043221 55 41 0.0 0.0 0.00 0.00 0.00 73 1031.2
20260906042719 55 41 0.0 0.0 0.00 0.00 0.00 73 1031.2
20260906042221 56 41 0.0 1.7 0.00 0.00 0.00 72 1031.3
20260906041716 56 41 0.0 2.6 0.00 0.00 0.00 71 1031.4
20260906041433 56 114 0.0 4.3 0.00 0.00 0.00 69 1031.3
20260906040716 57 99 1.7 4.3 0.00 0.00 0.00 69 1031.3
20260906040218 57 111 1.7 3.5 0.00 0.00 0.00 67 1031.4
20260906035717 57 109 0.9 2.6 0.00 0.00 0.00 66 1031.4
20260906035217 57 117 0.0 2.6 0.00 0.00 0.00 66 1031.3
20260906034716 57 111 0.9 2.6 0.00 0.00 0.00 65 1031.2
20260906034439 58 128 0.0 3.5 0.00 0.00 0.00 63 1031.1
20260906033715 58 154 0.9 5.2 0.00 0.00 0.00 63 1030.9
20260906033215 57 186 1.7 5.2 0.00 0.00 0.00 63 1031.0
20260906032938 57 162 2.6 3.5 0.00 0.00 0.00 64 1030.8
20260906032215 57 235 0.9 0.9 0.00 0.00 0.00 64 1030.7
20260906031943 58 235 0.0 0.0 0.00 0.00 0.00 63 1030.7
20260906031215 58 235 0.0 1.7 0.00 0.00 0.00 62 1030.7
20260906030716 58 235 0.9 1.7 0.00 0.00 0.00 62 1030.7
20260906030442 58 244 0.0 1.7 0.00 0.00 0.00 62 1030.6
20260906025714 58 220 0.0 2.6 0.00 0.00 0.00 62 1030.6
20260906025216 58 171 0.9 2.6 0.00 0.00 0.00 61 1030.6
20260906024711 59 206 0.9 2.6 0.00 0.00 0.00 61 1030.6
20260906024210 59 165 0.9 2.6 0.00 0.00 0.00 60 1030.6
20260906023714 59 140 0.9 2.6 0.00 0.00 0.00 60 1030.6
20260906023216 59 49 0.0 2.6 0.00 0.00 0.00 59 1030.6
20260906022714 59 39 0.9 2.6 0.00 0.00 0.00 59 1030.6
20260906022216 60 73 0.0 3.5 0.00 0.00 0.00 58 1030.7
20260906022200 60 23 0.0 6.1 0.00 0.00 0.00 58 1030.4
20260906021214 60 69 2.6 6.1 0.00 0.00 0.00 57 1030.3
20260906020709 60 52 3.5 5.2 0.00 0.00 0.00 55 1030.3
20260906020209 61 41 4.3 6.1 0.00 0.00 0.00 53 1030.2
20260906015711 61 45 2.6 8.7 0.00 0.00 0.00 53 1030.2
20260906015435 62 92 3.5 10.4 0.00 0.00 0.00 52 1030.1
20260906014715 62 73 4.3 13.0 0.00 0.00 0.00 50 1030.1
20260906014218 64 27 4.3 13.0 0.00 0.00 0.00 47 1030.2
20260906013718 65 31 2.6 7.8 0.00 0.00 0.00 41 1030.2
20260906013213 65 20 3.5 5.2 0.00 0.00 0.00 40 1029.7
20260906012713 65 4 1.7 6.1 0.00 0.00 0.00 41 1029.7
20260906012214 65 37 3.5 6.1 0.00 0.00 0.00 40 1029.6
20260906011712 65 338 2.6 5.2 0.00 0.00 0.00 39 1029.5
20260906011210 66 331 2.6 5.2 0.00 0.00 0.00 40 1029.5
20260906010712 66 353 2.6 5.2 0.00 0.00 0.00 39 1029.4
20260906010213 66 353 3.5 7.8 0.00 0.00 0.00 39 1029.5
20260906005712 67 334 4.3 8.7 0.00 0.00 0.00 38 1029.4
20260906005212 67 14 6.1 8.7 0.00 0.00 0.00 37 1029.4
20260906004717 67 41 2.6 8.7 0.00 0.00 0.00 39 1029.4
20260906004212 68 28 2.6 7.8 0.00 0.00 0.00 39 1029.3
20260906003712 68 347 1.7 7.8 0.00 0.00 0.00 41 1029.2
20260906003208 67 30 3.5 7.8 0.00 0.00 0.00 40 1029.3
20260906002709 67 49 2.6 7.8 0.00 0.00 0.00 39 1029.2
20260906002432 67 341 4.3 5.2 0.00 0.00 0.00 40 1029.2
20260906001712 67 56 1.7 6.1 0.00 0.00 0.00 39 1029.1
20260906001437 68 31 2.6 6.1 0.00 0.00 0.00 39 1029.2
20260906000711 67 35 3.5 6.1 0.00 0.00 0.00 39 1029.1
20260906000212 67 41 2.6 6.1 0.00 0.00 0.00 40 1029.3
20260905235715 67 330 3.5 8.7 0.00 0.00 0.00 40 1029.3
20260905235211 67 16 1.7 8.7 0.00 0.00 0.00 40 1029.3
20260905234710 67 343 2.6 9.6 0.00 0.00 0.00 39 1029.3
20260905234208 67 343 6.1 9.6 0.00 0.00 0.00 38 1029.3
20260905233710 67 39 5.2 9.6 0.00 0.00 0.00 37 1029.2
20260905233211 68 333 4.3 8.7 0.00 0.00 0.00 37 1029.2
20260905232711 68 63 2.6 10.4 0.00 0.00 0.00 38 1029.2
20260905232210 68 37 5.2 10.4 0.00 0.00 0.00 37 1029.1
20260905231709 69 44 3.5 9.6 0.00 0.00 0.00 38 1029.1
20260905231434 68 28 5.2 9.6 0.00 0.00 0.00 37 1029.2
20260905230923 68 193 1.7 7.8 0.00 0.00 0.00 36 1029.1
20260905230651 67 38 4.3 7.8 0.00 0.00 0.00 39 1029.3
20260905225710 66 37 4.3 7.8 0.00 0.00 0.00 39 1029.3
20260905225209 65 350 5.2 9.6 0.00 0.00 0.00 38 1029.2
20260905224709 66 30 5.2 9.6 0.00 0.00 0.00 37 1029.2
20260905224210 66 307 3.5 7.8 0.00 0.00 0.00 38 1029.3
20260905223709 66 343 2.6 7.8 0.00 0.00 0.00 38 1029.3
20260905223212 66 343 4.3 6.1 0.00 0.00 0.00 38 1029.3
20260905222709 66 334 2.6 6.1 0.00 0.00 0.00 38 1029.3
20260905222437 66 357 2.6 7.8 0.00 0.00 0.00 40 1029.4
20260905221708 66 334 2.6 7.8 0.00 0.00 0.00 39 1029.3
20260905221209 66 347 3.5 7.8 0.00 0.00 0.00 38 1029.3
20260905220708 67 11 4.3 6.1 0.00 0.00 0.00 38 1029.4
20260905220208 67 350 3.5 5.2 0.00 0.00 0.00 37 1029.4
20260905215708 68 8 1.7 3.5 0.00 0.00 0.00 37 1029.3
20260905215207 68 76 0.9 4.3 0.00 0.00 0.00 36 1029.3
20260905214708 68 28 2.6 6.1 0.00 0.00 0.00 37 1029.4
20260905214652 68 1 2.6 6.1 0.00 0.00 0.00 38 1029.3
20260905213706 68 28 3.5 8.7 0.00 0.00 0.00 37 1029.3
20260905213204 67 39 5.2 8.7 0.00 0.00 0.00 38 1029.3
20260905212709 67 39 4.3 7.8 0.00 0.00 0.00 39 1029.4
20260905212207 67 47 3.5 8.7 0.00 0.00 0.00 39 1029.4
20260905211707 67 52 3.5 10.4 0.00 0.00 0.00 39 1029.3
20260905211207 67 61 5.2 10.4 0.00 0.00 0.00 40 1029.5
20260905210940 67 71 5.2 10.4 0.00 0.00 0.00 38 1029.4
20260905210207 68 52 5.2 10.4 0.00 0.00 0.00 39 1029.4
20260905205707 68 65 3.5 10.4 0.00 0.00 0.00 40 1029.4
20260905205207 68 124 4.3 10.4 0.00 0.00 0.00 42 1029.3
20260905204707 68 118 3.5 10.4 0.00 0.00 0.00 42 1029.3
20260905204213 68 134 7.0 13.0 0.00 0.00 0.00 41 1029.3
20260905203708 69 117 5.2 13.0 0.00 0.00 0.00 40 1029.3
20260905203206 70 100 5.2 13.0 0.00 0.00 0.00 40 1029.2
20260905202706 69 58 7.8 13.0 0.00 0.00 0.00 39 1029.2
20260905202206 68 103 4.3 8.7 0.00 0.00 0.00 38 1029.1
20260905201707 68 137 3.5 8.7 0.00 0.00 0.00 36 1029.2
20260905201206 68 124 2.6 8.7 0.00 0.00 0.00 36 1029.1
20260905200706 68 94 5.2 8.7 0.00 0.00 0.00 36 1029.1
20260905200205 69 104 2.6 7.8 0.00 0.00 0.00 36 1029.2
20260905195705 68 121 3.5 7.8 0.00 0.00 0.00 39 1029.1
20260905195205 68 109 4.3 9.6 0.00 0.00 0.00 38 1029.1
20260905194705 68 148 5.2 9.6 0.00 0.00 0.00 38 1029.2
20260905194205 68 85 3.5 7.8 0.00 0.00 0.00 39 1029.1
20260905193705 68 96 3.5 7.8 0.00 0.00 0.00 38 1029.2
20260905193205 69 94 3.5 7.8 0.00 0.00 0.00 38 1029.3
20260905192705 68 93 3.5 8.7 0.00 0.00 0.00 38 1029.3
20260905192206 68 49 4.3 8.7 0.00 0.00 0.00 39 1029.3
20260905191916 67 73 4.3 5.2 0.00 0.00 0.00 43 1029.4
20260905191801 68 103 1.7 6.1 0.00 0.00 0.00 41 1029.4
20260905190704 67 75 0.9 5.2 0.00 0.00 0.00 43 1029.4
20260905190204 67 102 3.5 5.2 0.00 0.00 0.00 42 1029.6
20260905185704 67 76 2.6 5.2 0.00 0.00 0.00 44 1029.6
20260905185204 66 73 0.9 5.2 0.00 0.00 0.00 46 1029.6
20260905184704 66 42 3.5 5.2 0.00 0.00 0.00 46 1029.7
20260905184423 66 106 1.7 5.2 0.00 0.00 0.00 47 1029.6
20260905183705 65 104 3.5 5.2 0.00 0.00 0.00 47 1029.8
20260905183203 65 90 0.9 4.3 0.00 0.00 0.00 45 1029.8
20260905182703 65 89 1.7 4.3 0.00 0.00 0.00 47 1029.9
20260905182203 65 55 1.7 3.5 0.00 0.00 0.00 49 1030.0
20260905181703 64 121 1.7 4.3 0.00 0.00 0.00 49 1030.0
20260905181204 64 100 2.6 4.3 0.00 0.00 0.00 49 1030.1
20260905180924 64 118 0.9 3.5 0.00 0.00 0.00 49 1030.1
20260905180203 63 82 0.9 2.6 0.00 0.00 0.00 50 1030.2
20260905175702 63 58 0.9 5.2 0.00 0.00 0.00 52 1030.3
20260905175205 62 87 1.7 5.2 0.00 0.00 0.00 53 1030.4
20260905174703 62 151 2.6 4.3 0.00 0.00 0.00 52 1030.3
20260905174203 63 109 1.7 3.5 0.00 0.00 0.00 51 1030.4
20260905174152 62 83 0.0 0.0 0.00 0.00 0.00 52 1030.6
20260905173202 61 147 0.0 0.0 0.00 0.00 0.00 51 1030.6
20260905172704 60 310 0.0 0.0 0.00 0.00 0.00 55 1030.6
20260905172202 60 18 0.0 0.0 0.00 0.00 0.00 55 1030.7
20260905171707 59 121 0.0 0.0 0.00 0.00 0.00 58 1030.8
20260905171202 58 142 0.0 0.0 0.00 0.00 0.00 57 1030.9
20260905170703 58 121 0.0 0.0 0.00 0.00 0.00 59 1031.0
20260905170202 58 87 0.0 0.0 0.00 0.00 0.00 60 1031.0
20260905165929 58 44 0.0 0.0 0.00 0.00 0.00 59 1031.1
20260905165206 58 309 0.0 0.0 0.00 0.00 0.00 61 1031.1
20260905164702 57 92 0.0 0.0 0.00 0.00 0.00 61 1031.1
20260905164201 57 4 0.0 0.0 0.00 0.00 0.00 61 1031.1
20260905163701 56 337 0.0 0.0 0.00 0.00 0.00 62 1031.2
20260905163425 56 343 0.0 0.0 0.00 0.00 0.00 62 1031.2
20260905162700 56 252 0.0 0.9 0.00 0.00 0.00 65 1031.2
20260905162202 55 251 0.0 0.9 0.00 0.00 0.00 65 1031.4
20260905161700 55 255 0.0 0.0 0.00 0.00 0.00 66 1031.4
20260905161200 55 255 0.0 0.0 0.00 0.00 0.00 68 1031.4
20260905160923 55 255 0.0 0.0 0.00 0.00 0.00 69 1031.5
20260905160200 54 258 0.0 0.0 0.00 0.00 0.00 71 1031.5
20260905155701 53 258 0.0 0.0 0.00 0.00 0.00 71 1031.5
20260905155432 53 258 0.0 0.9 0.00 0.00 0.00 73 1031.6
20260905154701 52 257 0.0 0.9 0.00 0.00 0.00 74 1031.5
20260905154200 52 258 0.0 0.9 0.00 0.00 0.00 72 1031.5
20260905153701 52 250 0.0 0.9 0.00 0.00 0.00 73 1031.5
20260905153419 51 250 0.0 0.9 0.00 0.00 0.00 79 1031.5
20260905152659 49 250 0.0 0.9 0.00 0.00 0.00 79 1031.5
20260905152427 49 250 0.0 0.0 0.00 0.00 0.00 81 1031.5
20260905151659 48 250 0.0 0.0 0.00 0.00 0.00 83 1031.6
20260905151421 47 251 0.0 0.0 0.00 0.00 0.00 83 1031.6
20260905150659 47 247 0.0 0.9 0.00 0.00 0.00 84 1031.6
20260905150429 47 247 0.0 0.9 0.00 0.00 0.00 85 1031.7
20260905145658 47 247 0.0 0.0 0.00 0.00 0.00 90 1031.5
20260905145159 45 247 0.0 0.0 0.00 0.00 0.00 94 1031.6
20260905144659 43 247 0.0 0.9 0.00 0.00 0.00 93 1031.6
20260905144158 42 247 0.0 0.9 0.00 0.00 0.00 93 1031.6
20260905143658 42 247 0.0 0.0 0.00 0.00 0.00 93 1031.5
20260905143158 41 247 0.0 0.0 0.00 0.00 0.00 93 1031.5
20260905142659 41 247 0.0 0.0 0.00 0.00 0.00 93 1031.5
20260905142157 41 247 0.0 0.0 0.00 0.00 0.00 94 1031.5
20260905141701 41 247 0.0 0.0 0.00 0.00 0.00 94 1031.5
20260905141158 41 247 0.0 0.0 0.00 0.00 0.00 94 1031.4
20260905140659 40 247 0.0 0.0 0.00 0.00 0.00 94 1031.5
20260905140202 40 247 0.0 0.0 0.00 0.00 0.00 94 1031.3
20260905135657 40 247 0.0 0.0 0.00 0.00 0.00 93 1031.3
20260905135157 40 247 0.0 0.0 0.00 0.00 0.00 93 1031.4
20260905134657 40 247 0.0 0.0 0.00 0.00 0.00 93 1031.4
20260905134201 40 247 0.0 0.0 0.00 0.00 0.00 93 1031.2
20260905133918 40 247 0.0 0.0 0.00 0.00 0.00 93 1031.2
20260905133157 40 247 0.0 0.9 0.00 0.00 0.00 93 1031.3
20260905132656 40 247 0.0 0.9 0.00 0.00 0.00 93 1031.2
20260905132420 40 247 0.0 0.9 0.00 0.00 0.00 93 1031.2
20260905131656 40 213 0.0 0.0 0.00 0.00 0.00 92 1031.2
20260905131416 41 213 0.0 0.0 0.00 0.00 0.00 93 1031.2
20260905130657 41 213 0.0 0.0 0.00 0.00 0.00 93 1031.1
20260905130156 41 213 0.0 0.0 0.00 0.00 0.00 92 1031.1
20260905125657 41 213 0.0 0.0 0.00 0.00 0.00 92 1031.1
20260905125156 41 213 0.0 0.0 0.00 0.00 0.00 92 1031.0
20260905124926 41 213 0.0 0.0 0.00 0.01 0.00 92 1031.1
20260905124156 41 213 0.0 0.0 0.00 0.01 0.00 92 1031.0
20260905123657 42 213 0.0 0.0 0.00 0.01 0.00 91 1031.1
20260905123422 42 213 0.0 0.0 0.00 0.01 0.00 92 1031.0
20260905122655 42 213 0.0 0.0 0.00 0.01 0.00 92 1031.0
20260905122156 42 213 0.0 0.0 0.00 0.02 0.00 93 1031.0
20260905121655 42 213 0.0 0.0 0.00 0.02 0.00 93 1031.1
20260905121414 41 212 0.0 0.0 0.00 0.03 0.00 92 1031.1
20260905120655 41 213 0.0 0.0 0.00 0.03 0.00 92 1031.1
20260905120156 42 212 0.0 0.0 0.00 0.04 0.00 92 1031.0
20260905115655 42 213 0.0 0.0 0.00 0.06 0.00 92 1031.0
20260905115155 42 213 0.0 0.0 0.00 0.06 0.00 92 1031.0
20260905115135 42 212 0.0 0.0 0.00 0.07 0.00 92 1030.9
20260905114155 42 213 0.0 0.0 0.00 0.08 0.00 92 1030.9
20260905113655 42 212 0.0 0.0 0.00 0.08 0.00 92 1030.9
20260905113414 42 213 0.0 0.0 0.00 0.09 0.00 92 1030.9
20260905112655 42 213 0.0 0.0 0.00 0.09 0.00 92 1030.8
20260905112154 42 213 0.0 0.0 0.00 0.09 0.00 92 1030.8
20260905111655 42 212 0.0 0.0 0.00 0.10 0.00 92 1030.8
20260905111154 42 212 0.0 0.0 0.00 0.10 0.00 92 1030.8
20260905110918 42 213 0.0 0.0 0.00 0.10 0.00 92 1030.8
20260905110421 42 213 0.0 0.0 0.00 0.11 0.00 91 1030.8
20260905105654 42 212 0.0 0.0 0.00 0.12 0.00 91 1030.8
20260905105154 42 212 0.0 0.0 0.00 0.12 0.00 91 1030.8
20260905104653 42 212 0.0 0.0 0.00 0.12 0.00 91 1030.7
20260905104154 42 212 0.0 0.0 0.00 0.12 0.00 91 1030.7
20260905103653 42 212 0.0 0.0 0.00 0.12 0.00 92 1030.8
20260905103154 42 213 0.0 0.0 0.00 0.13 0.00 92 1030.7
20260905102915 42 212 0.0 0.0 0.00 0.13 0.00 91 1030.7
20260905102415 42 213 0.0 0.0 0.00 0.13 0.00 91 1030.7
20260905101652 42 212 0.0 0.0 0.00 0.13 0.00 91 1030.7
20260905101152 42 212 0.0 0.0 0.00 0.13 0.00 91 1030.6
20260905100914 42 212 0.0 0.0 0.00 0.13 0.00 91 1030.4
20260905100152 42 212 0.0 0.0 0.00 0.13 0.00 91 1030.6
20260905095654 42 212 0.0 0.0 0.00 0.13 0.00 90 1030.3